TimeMDT,TemperatureF,Dew PointF,Humidity,Sea Level PressureIn,VisibilityMPH,Wind Direction,Wind SpeedMPH,Gust SpeedMPH,PrecipitationIn,Events,Conditions,WindDirDegrees,DateUTC
12:53 AM,48.0,32.0,54,29.55,10.0,West,9.2,-,N/A,,Clear,260,2013-04-08 06:53:00
1:53 AM,52.0,32.0,47,29.54,10.0,WSW,12.7,-,N/A,,Mostly Cloudy,240,2013-04-08 07:53:00
2:53 AM,43.0,30.9,62,29.53,10.0,WSW,10.4,-,N/A,,Clear,240,2013-04-08 08:53:00
3:53 AM,39.0,30.0,70,29.55,10.0,WSW,10.4,-,N/A,,Clear,250,2013-04-08 09:53:00
4:53 AM,37.0,28.9,73,29.55,10.0,West,6.9,-,N/A,,Clear,270,2013-04-08 10:53:00
5:53 AM,33.1,27.0,78,29.58,10.0,WNW,5.8,-,N/A,,Clear,300,2013-04-08 11:53:00
6:53 AM,32.0,27.0,82,29.61,10.0,Calm,Calm,-,N/A,,Clear,0,2013-04-08 12:53:00
7:53 AM,42.1,33.1,70,29.62,10.0,West,6.9,-,N/A,,Clear,270,2013-04-08 13:53:00
8:53 AM,52.0,32.0,47,29.60,10.0,WNW,6.9,-,N/A,,Clear,290,2013-04-08 14:53:00
9:53 AM,57.0,30.9,37,29.59,10.0,North,6.9,-,N/A,,Clear,360,2013-04-08 15:53:00
10:53 AM,61.0,28.9,30,29.59,10.0,Calm,Calm,-,N/A,,Partly Cloudy,0,2013-04-08 16:53:00
11:53 AM,64.0,28.9,27,29.58,10.0,North,10.4,-,N/A,,Clear,10,2013-04-08 17:53:00
12:53 PM,59.0,30.9,35,29.61,10.0,NNE,24.2,31.1,N/A,,Partly Cloudy,20,2013-04-08 18:53:00
1:53 PM,57.9,35.1,42,29.59,10.0,NNE,27.6,36.8,N/A,,Partly Cloudy,30,2013-04-08 19:53:00
2:53 PM,53.1,39.0,59,29.61,10.0,NE,25.3,36.8,N/A,,Overcast,40,2013-04-08 20:53:00
3:33 PM,46.4,37.4,71,29.65,10.0,NNE,32.2,38.0,N/A,,Overcast,30,2013-04-08 21:33:00
3:51 PM,44.6,39.2,81,29.66,9.0,NNE,31.1,41.4,0.00,Rain,Light Rain,30,2013-04-08 21:51:00
3:53 PM,43.0,39.0,86,29.67,9.0,NNE,29.9,41.4,0.00,Rain,Light Rain,30,2013-04-08 21:53:00
3:55 PM,42.8,39.2,87,29.67,9.0,NNE,33.4,41.4,0.00,Rain,Light Rain,30,2013-04-08 21:55:00
4:53 PM,39.0,37.0,93,29.73,6.0,NNE,28.8,38.0,0.00,Rain,Light Rain,20,2013-04-08 22:53:00
5:37 PM,33.8,32.0,93,29.74,1.8,NNE,24.2,32.2,0.12,Snow,Light Snow,30,2013-04-08 23:37:00
5:41 PM,33.8,32.0,93,29.73,1.0,NNE,27.6,35.7,0.12,Snow,Light Snow,30,2013-04-08 23:41:00
5:49 PM,33.8,32.0,93,29.74,0.5,NNE,27.6,35.7,0.12,Fog-Snow,Snow,30,2013-04-08 23:49:00
5:53 PM,33.1,32.0,96,29.79,0.8,NNE,25.3,35.7,0.12,Snow,Light Snow,30,2013-04-08 23:53:00
6:03 PM,33.8,30.2,87,29.74,1.2,NE,26.5,32.2,0.00,Snow,Light Snow,40,2013-04-09 00:03:00
6:11 PM,33.8,30.2,87,29.75,1.5,NE,25.3,33.4,0.00,Snow,Light Snow,40,2013-04-09 00:11:00
6:19 PM,33.8,30.2,87,29.74,2.5,NE,29.9,34.5,0.00,Snow,Light Snow,40,2013-04-09 00:19:00
6:40 PM,32.0,30.2,93,29.74,0.8,NE,35.7,42.6,0.00,Snow,Light Snow,50,2013-04-09 00:40:00
6:53 PM,32.0,30.0,92,29.78,0.5,NE,34.5,43.7,0.00,Fog-Snow,Snow,40,2013-04-09 00:53:00
7:00 PM,32.0,30.2,93,29.73,1.0,NE,28.8,40.3,0.00,Snow,Light Snow,40,2013-04-09 01:00:00
7:03 PM,32.0,30.2,93,29.73,1.8,NNE,33.4,40.3,0.00,Snow,Light Snow,30,2013-04-09 01:03:00
7:06 PM,32.0,30.2,93,29.72,3.0,NNE,33.4,43.7,0.00,Snow,Light Snow,30,2013-04-09 01:06:00
7:22 PM,30.2,28.4,93,29.71,10.0,NNE,36.8,43.7,0.00,,Overcast,30,2013-04-09 01:22:00
7:53 PM,30.9,28.9,92,29.76,8.0,NNE,36.8,46.0,0.00,Rain,Freezing Rain,30,2013-04-09 01:53:00
8:18 PM,30.2,28.4,93,29.75,3.0,NNE,36.8,47.2,0.00,Snow,Light Snow,20,2013-04-09 02:18:00
8:25 PM,28.4,26.6,93,29.74,2.0,NNE,41.4,50.6,0.00,Snow,Light Snow,20,2013-04-09 02:25:00
9:00 PM,26.6,23.0,86,29.78,1.0,NNE,40.3,51.8,0.00,Snow,Light Snow,30,2013-04-09 03:00:00
10:26 PM,21.2,19.4,93,29.77,0.8,NNE,39.1,56.4,0.00,,Mist,20,2013-04-09 04:26:00
10:53 PM,21.0,19.0,92,29.80,0.8,NNE,32.2,47.2,0.00,,Overcast,20,2013-04-09 04:53:00
11:25 PM,19.4,17.6,93,29.80,0.8,North,35.7,50.6,N/A,,Overcast,10,2013-04-09 05:25:00
11:34 PM,19.4,17.6,93,29.83,0.5,North,36.8,49.5,N/A,Fog,Light Freezing Fog,10,2013-04-09 05:34:00
11:42 PM,19.4,15.8,86,29.88,1.0,North,25.3,44.9,N/A,,Overcast,360,2013-04-09 05:42:00
11:53 PM,18.0,16.0,92,29.85,-9999.0,North,38.0,48.3,N/A,,Unknown,10,2013-04-09 05:53:00